| time (UTC) | temp C | wind direction | speed KPH | gust KPH | rain 1hr cm | rain 24hr cm | rain mn cm | humidity % | barometer mb |
| 20260504214519 | 21 | 197 | 3.2 | 9.7 | 0.00 | 0.00 | 0.00 | 58 | 1009.6 |
| 20260504213021 | 21 | 179 | 3.2 | 8.0 | 0.00 | 0.00 | 0.00 | 58 | 1009.6 |
| 20260504211519 | 21 | 221 | 4.8 | 11.3 | 0.00 | 0.00 | 0.00 | 58 | 1009.8 |
| 20260504210017 | 21 | 158 | 1.6 | 8.0 | 0.00 | 0.00 | 0.00 | 57 | 1009.9 |
| 20260504204518 | 21 | 148 | 1.6 | 11.3 | 0.00 | 0.00 | 0.00 | 57 | 1010.0 |
| 20260504203017 | 20 | 194 | 3.2 | 12.9 | 0.00 | 0.00 | 0.00 | 59 | 1010.1 |
| 20260504201515 | 21 | 193 | 4.8 | 12.9 | 0.00 | 0.00 | 0.00 | 60 | 1010.1 |
| 20260504200014 | 21 | 172 | 4.8 | 9.7 | 0.00 | 0.00 | 0.00 | 62 | 1010.3 |
| 20260504194509 | 19 | 169 | 3.2 | 11.3 | 0.00 | 0.00 | 0.00 | 62 | 1010.3 |
| 20260504193007 | 19 | 168 | 6.4 | 11.3 | 0.00 | 0.00 | 0.00 | 60 | 1010.3 |
| 20260504191512 | 20 | 169 | 1.6 | 9.7 | 0.00 | 0.00 | 0.00 | 65 | 1010.2 |
| 20260504190006 | 20 | 223 | 0.0 | 4.8 | 0.00 | 0.00 | 0.00 | 67 | 1010.2 |
| 20260504184503 | 20 | 199 | 1.6 | 11.3 | 0.00 | 0.00 | 0.00 | 68 | 1010.1 |
| 20260504183003 | 20 | 165 | 1.6 | 6.4 | 0.00 | 0.00 | 0.00 | 67 | 1010.2 |
| 20260504181609 | 18 | 187 | 1.6 | 8.0 | 0.00 | 0.00 | 0.00 | 70 | 1010.3 |
| 20260504180056 | 18 | 238 | 1.6 | 8.0 | 0.00 | 0.00 | 0.00 | 71 | 1010.2 |
| 20260504174552 | 17 | 192 | 1.6 | 9.7 | 0.00 | 0.00 | 0.00 | 71 | 1010.1 |
| 20260504173055 | 17 | 238 | 1.6 | 4.8 | 0.00 | 0.00 | 0.00 | 71 | 1010.2 |
| 20260504171549 | 17 | 178 | 1.6 | 4.8 | 0.00 | 0.00 | 0.00 | 70 | 1010.2 |
| 20260504100105 | 11 | 197 | 0.0 | 0.0 | 0.00 | 0.00 | 0.00 | 81 | 1009.4 |
| 20260504081551 | 12 | 197 | 0.0 | 0.0 | 0.00 | 0.00 | 0.00 | 81 | 1009.2 |
| 20260504044532 | 13 | 197 | 0.0 | 1.6 | 0.00 | 0.00 | 0.00 | 77 | 1009.3 |
| 20260504043039 | 14 | 197 | 0.0 | 0.0 | 0.00 | 0.00 | 0.00 | 76 | 1009.3 |
| 20260504041531 | 14 | 197 | 0.0 | 0.0 | 0.00 | 0.00 | 0.00 | 75 | 1009.4 |
| 20260504040031 | 15 | 197 | 0.0 | 1.6 | 0.00 | 0.00 | 0.00 | 75 | 1009.3 |
| 20260504034530 | 15 | 197 | 0.0 | 0.0 | 0.00 | 0.00 | 0.00 | 72 | 1009.2 |
| 20260504033030 | 15 | 197 | 0.0 | 0.0 | 0.00 | 0.00 | 0.00 | 70 | 1009.3 |
| 20260504031533 | 16 | 197 | 0.0 | 1.6 | 0.00 | 0.00 | 0.00 | 70 | 1009.3 |
| 20260504030028 | 16 | 186 | 0.0 | 0.0 | 0.00 | 0.00 | 0.00 | 71 | 1009.4 |
| 20260504024533 | 17 | 173 | 0.0 | 1.6 | 0.00 | 0.00 | 0.00 | 69 | 1009.3 |
| 20260504023027 | 17 | 173 | 0.0 | 1.6 | 0.00 | 0.00 | 0.00 | 70 | 1009.3 |
| 20260504021526 | 18 | 173 | 0.0 | 1.6 | 0.00 | 0.00 | 0.00 | 67 | 1009.4 |
| 20260504020024 | 18 | 173 | 0.0 | 3.2 | 0.00 | 0.00 | 0.00 | 66 | 1009.6 |
| 20260504014533 | 18 | 173 | 0.0 | 4.8 | 0.00 | 0.00 | 0.00 | 62 | 1009.6 |
| 20260504013033 | 19 | 189 | 1.6 | 8.0 | 0.00 | 0.00 | 0.00 | 60 | 1009.8 |
| 20260504011522 | 19 | 172 | 3.2 | 6.4 | 0.00 | 0.00 | 0.00 | 61 | 1009.9 |
| 20260504010020 | 20 | 223 | 0.0 | 6.4 | 0.00 | 0.00 | 0.00 | 62 | 1010.1 |
| 20260504004518 | 20 | 159 | 0.0 | 4.8 | 0.00 | 0.00 | 0.00 | 62 | 1010.2 |
| 20260504003017 | 21 | 180 | 1.6 | 11.3 | 0.00 | 0.00 | 0.00 | 61 | 1010.5 |
| 20260504001515 | 22 | 179 | 4.8 | 9.7 | 0.00 | 0.00 | 0.00 | 57 | 1010.4 |
| 20260504000013 | 25 | 341 | 0.0 | 8.0 | 0.00 | 0.00 | 0.00 | 46 | 1010.6 |
| 20260503234512 | 25 | 298 | 3.2 | 12.9 | 0.00 | 0.00 | 0.00 | 47 | 1010.8 |
| 20260503233018 | 25 | 158 | 3.2 | 6.4 | 0.00 | 0.00 | 0.00 | 47 | 1010.9 |
| 20260503231510 | 24 | 215 | 1.6 | 6.4 | 0.00 | 0.00 | 0.00 | 52 | 1010.9 |
| 20260503230006 | 25 | 257 | 1.6 | 9.7 | 0.00 | 0.00 | 0.00 | 49 | 1011.2 |
| 20260503224505 | 24 | 30 | 4.8 | 8.0 | 0.00 | 0.00 | 0.00 | 47 | 1011.4 |
| 20260503223003 | 25 | 288 | 1.6 | 8.0 | 0.00 | 0.00 | 0.00 | 45 | 1011.5 |
| 20260503221501 | 25 | 22 | 0.0 | 8.0 | 0.00 | 0.00 | 0.00 | 44 | 1011.7 |
| 20260503220059 | 24 | 292 | 0.0 | 4.8 | 0.00 | 0.00 | 0.00 | 45 | 1011.9 |